Location: Unspecified
(43.4680°N, 87.1740°E)
Time: 04:16:36
(UTC+00:00)

ARIANE 5 R/B - Pass Details

Date: 17 April 2021
Orbit: 749 x 794 km, 98.7° (Epoch: 16 May)

Event Time Altitude Azimuth Distance (km) Brightness Sun altitude
Rises 20:30:30 0° 23° (NNE) 3,306 7.0 -27.1°
Reaches altitude 10° 20:33:07 10° 34° (NE) 2,371 6.0 -26.8°
Maximum altitude 20:37:42 30° 96° (E) 1,387 4.1 -26.3°
Enters shadow 20:40:12 21° 139° (SE) 1,734 4.2 -26.0°
